User: anonymous   Login
Location: Newark
(40.9833°N, 0.0333°W)
Time: 15:34:10
(UTC+00:00)
Language:

Tiros 1 despin weight - Orbit

View from above orbital plane
View from above orbital plane
View from above satellite
View from above satellite

Ground track
Ground track

The orbit data is extracted from the following two-line orbital elements,

1   115U 60002D   20294.72486097 +.00000075 +00000-0 +36035-4 0  9998
2   115 048.1679 031.8301 0033899 081.0114 279.4633 14.83631632231576
Epoch (UTC): 20 October 2020 17:23:47
Eccentricity: 0.0033899
inclination: 48.1679°
perigee height: 594 km
apogee height: 641 km
right ascension of ascending node: 31.8301°
argument of perigee: 81.0114°
revolutions per day: 14.83631632
mean anomaly at epoch: 279.4633°
orbit number at epoch: 23157

The dashed part of the orbit path shows where the satellite is in the earth's shadow,  

DLR